Location: Aiyekoto
(8.4333°N, 4.3667°E)
Time: 11:37:35
(UTC+00:00)

Tiros 1 - All Passes

Search period start: 26 September 2020 00:00
Search period end: 06 October 2020 00:00
Orbit: 630 x 664 km, 48.4° (Epoch: 26 September)

Date Brightness Start Highest point End Pass type
(mag) Time Alt. Az. Time Alt. Az. Time Alt. Az.
26 Sep - 12:16:36 10° SSW 12:21:10 62° SE 12:25:47 10° NE daylight
26 Sep - 14:01:53 10° WNW 14:03:25 11° NW 14:04:58 10° NNW daylight
26 Sep - 22:44:04 10° NNW 22:48:29 36° NE 22:52:52 10° ESE night (unlit)
27 Sep - 00:27:11 10° W 00:30:28 18° SW 00:33:44 10° S night (unlit)
27 Sep - 11:02:17 10° SSE 11:05:10 16° SE 11:08:05 10° E daylight
27 Sep - 12:42:48 10° WSW 12:47:08 38° NW 12:51:30 10° NNE daylight
27 Sep - 21:30:52 10° NNE 21:32:09 11° NE 21:33:28 10° ENE night (unlit)
27 Sep - 23:09:41 10° NW 23:14:27 68° SW 23:19:11 10° SSE night (unlit)
28 Sep - 11:26:33 10° SSW 11:31:04 54° SE 11:35:37 10° NE daylight
28 Sep - 13:11:09 10° WNW 13:13:16 13° NW 13:15:24 10° NNW daylight
28 Sep - 21:54:03 10° NNW 21:58:21 32° NE 22:02:37 10° ESE night (unlit)
28 Sep - 23:36:47 10° W 23:40:21 21° SW 23:43:54 10° S night (unlit)
29 Sep - 10:12:35 10° SSE 10:15:05 14° SE 10:17:33 10° E daylight
29 Sep - 11:52:36 10° WSW 11:57:01 43° NW 12:01:28 10° NNE daylight
29 Sep - 22:19:32 10° NW 22:24:20 78° SW 22:29:06 10° SE night (unlit)
30 Sep - 10:36:32 10° SSW 10:40:57 47° SE 10:45:26 10° NE daylight
30 Sep - 12:20:35 10° W 12:23:07 14° NW 12:25:41 10° NNW daylight
30 Sep - 21:04:03 10° NNW 21:08:12 29° NE 21:12:20 10° ESE night (unlit)
30 Sep - 22:46:25 10° WNW 22:50:14 24° SW 22:54:02 10° S night (unlit)
01 Oct - 09:23:01 10° SSE 09:24:58 12° SE 09:26:55 10° ESE daylight
01 Oct - 11:02:25 10° SW 11:06:54 50° NW 11:11:24 10° NNE daylight
01 Oct - 21:29:24 10° NW 21:34:12 88° SW 21:39:00 10° SE night (unlit)
02 Oct - 09:46:32 10° SSW 09:50:52 41° SE 09:55:13 10° ENE daylight
02 Oct - 11:30:07 10° W 11:32:59 16° NW 11:35:53 10° N daylight
02 Oct - 20:14:04 10° N 20:18:04 26° NE 20:22:02 10° ESE night (unlit)
02 Oct - 21:56:05 10° WNW 22:00:06 27° SW 22:04:07 10° S night (unlit)
03 Oct - 08:33:43 10° SE 08:34:52 11° SE 08:36:00 10° ESE daylight
03 Oct - 10:12:15 10° SW 10:16:47 57° NW 10:21:21 10° NNE daylight
03 Oct - 20:39:16 10° NW 20:44:04 82° NE 20:48:52 10° SE night (unlit)
04 Oct - 08:56:33 10° SSW 09:00:45 36° SE 09:05:00 10° ENE daylight
04 Oct - 10:39:41 10° W 10:42:51 18° NW 10:46:02 10° N daylight
04 Oct - 19:24:07 10° N 19:27:55 23° NE 19:31:42 10° E visible
04 Oct - 21:05:48 10° WNW 21:09:59 30° SW 21:14:10 10° S night (unlit)
05 Oct - 09:22:06 10° SW 09:26:41 65° NW 09:31:16 10° NNE daylight
05 Oct - 19:49:09 10° NW 19:53:57 72° NE 19:58:44 10° SE visible
